STARLINK-1921

Last updated on Tue Nov 24 2020 00:02:02 GMT+0000 (Coordinated Universal Time)

1 46752U 20074P 20328.58334491 -.00002474 00000-0 -21215-4 0 9993 2 46752 53.0549 13.3949 0001078 49.3459 27.6289 15.62734563 1806
UTC large
Height (km)
Speed (km/s)
/
Latitude / Longitude
Inclination (degrees)
Orbital Period (minutes)
Azimuth
Elevation
Range (km)
Doppler Factor

Next 0 passes for location: London (51.5072 / 0.1276)

Sorry there are no passes over London.
STARLINK-1921